Weather History for Enid, OK

Change the Weather History Date:

Wednesday, January 23, 2013

  Actual Average Record
Temperature  
Mean Temperature 42 °F -  
Max Temperature 62 °F 44 °F 62 °F (2013)
Min Temperature 23 °F 27 °F 5 °F (2014)
Degree Days  
Heating Degree Days 22    
Moisture  
Dew Point 29 °F    
Average Humidity 72    
Maximum Humidity 93    
Minimum Humidity 39    
Precipitation  
Precipitation 0.00 in - - ()
Sea Level Pressure  
Sea Level Pressure 30.17 in    
Wind  
Wind Speed 7 mph (North)    
Max Wind Speed 17 mph    
Max Gust Speed -    
Visibility 9 miles    
Events      
Averages and records for this station are not official NWS values.
T = Trace of Precipitation, MM = Missing Value Source: NWS Daily Summary

Daily Weather History Graph

Daily Weather History Graph

Search for Another Location

Airport:

Trip Planner

Search our weather history database for the weather conditions in past years. The results will help you decide how hot, cold, wet, or windy it might be!

Date:

Astronomy

Jan. 23, 2013 Rise Set
Actual Time 7:38 AM CST 5:48 PM CST
Civil Twilight 7:10 AM CST 6:15 PM CST
Nautical Twilight 6:39 AM CST 6:47 PM CST
Astronomical Twilight 6:08 AM CST 7:17 PM CST
Moon 3:01 PM CST (1/23) 4:49 AM CST (1/23)
Length of Visible Light 11h 04m
Length of Day
10h 09m
Waxing Gibbous, 89% of the Moon is Illuminated
Jan 23
Waxing Gibbous
Jan 26
Full
Feb 3
Last Quarter
Feb 10
New
Feb 17
First Quarter

Hourly Weather History & Observations

Time (CST) Temp. Windchill Dew Point Humidity Pressure Visibility Wind Dir Wind Speed Gust Speed Precip Events Conditions
12:15 AM 30.2 °F 23.4 °F 23.0 °F 75% 30.21 in 10.0 mi North 6.9 mph - N/A   Clear
12:35 AM 28.4 °F 21.2 °F 23.0 °F 80% 30.20 in 10.0 mi North 6.9 mph - N/A   Clear
12:55 AM 28.4 °F 23.3 °F 23.0 °F 80% 30.19 in 10.0 mi North 4.6 mph - N/A   Clear
1:15 AM 28.4 °F 24.6 °F 23.0 °F 80% 30.18 in 10.0 mi North 3.5 mph - N/A   Clear
1:35 AM 28.4 °F 21.2 °F 23.0 °F 80% 30.18 in 10.0 mi North 6.9 mph - N/A   Clear
1:55 AM 26.6 °F 20.0 °F 21.2 °F 80% 30.18 in 10.0 mi NNW 5.8 mph - N/A   Clear
2:15 AM 26.6 °F 22.6 °F 23.0 °F 86% 30.17 in 10.0 mi North 3.5 mph - N/A   Clear
2:35 AM 26.6 °F 19.1 °F 23.0 °F 86% 30.18 in 10.0 mi North 6.9 mph - N/A   Clear
2:55 AM 28.4 °F 20.4 °F 23.0 °F 80% 30.19 in 10.0 mi North 8.1 mph - N/A   Clear
3:15 AM 28.4 °F 20.4 °F 23.0 °F 80% 30.19 in 10.0 mi North 8.1 mph - N/A   Clear
3:35 AM 26.6 °F 21.2 °F 23.0 °F 86% 30.19 in 10.0 mi North 4.6 mph - N/A   Clear
3:55 AM 26.6 °F 20.0 °F 21.2 °F 80% 30.18 in 10.0 mi North 5.8 mph - N/A   Clear
4:15 AM 24.8 °F 20.5 °F 21.2 °F 86% 30.18 in 10.0 mi North 3.5 mph - N/A   Clear
4:35 AM 24.8 °F 19.1 °F 21.2 °F 86% 30.18 in 10.0 mi NNW 4.6 mph - N/A   Clear
4:55 AM 24.8 °F 20.5 °F 21.2 °F 86% 30.17 in 10.0 mi NNW 3.5 mph - N/A   Clear
6:17 AM 23.0 °F 14.7 °F 21.2 °F 93% 30.19 in 10.0 mi North 6.9 mph - N/A   Clear
6:50 AM 24.8 °F - 21.2 °F 86% 30.17 in 10.0 mi Calm Calm - N/A   Clear
7:50 AM 23.0 °F 14.7 °F 19.4 °F 86% 30.18 in 10.0 mi North 6.9 mph - N/A   Scattered Clouds
8:50 AM 30.2 °F 24.3 °F 26.6 °F 86% 30.20 in 7.0 mi North 5.8 mph - N/A   Scattered Clouds
10:50 AM 48.2 °F - 32.0 °F 54% 30.21 in 7.0 mi SSW 5.8 mph - N/A   Scattered Clouds
11:50 AM 53.6 °F - 33.8 °F 47% 30.19 in 7.0 mi South 5.8 mph - N/A   Scattered Clouds
12:50 PM 59.0 °F - 35.6 °F 42% 30.13 in 7.0 mi South 12.7 mph - N/A   Mostly Cloudy
1:50 PM 59.0 °F - 37.4 °F 45% 30.12 in 7.0 mi South 10.4 mph - N/A   Mostly Cloudy
2:59 PM 62.6 °F - 37.4 °F 39% 30.11 in 7.0 mi SSE 6.9 mph - N/A   Mostly Cloudy
3:50 PM 60.8 °F - 39.2 °F 45% 30.11 in 7.0 mi South 8.1 mph - N/A   Mostly Cloudy
4:50 PM 59.0 °F - 39.2 °F 48% 30.11 in 7.0 mi Calm Calm - N/A   Mostly Cloudy
5:55 PM 51.8 °F - 37.4 °F 58% 30.11 in 7.0 mi Calm Calm - N/A   Mostly Cloudy
6:50 PM 46.4 °F 42.4 °F - N/A% 30.14 in 7.0 mi North 8.1 mph - N/A   Mostly Cloudy
7:50 PM 48.2 °F - 35.6 °F 62% 30.14 in 10.0 mi NNE 11.5 mph - N/A   Mostly Cloudy
8:15 PM 44.6 °F 39.2 °F 35.6 °F 71% 30.15 in 10.0 mi NNE 10.4 mph - N/A   Scattered Clouds
8:35 PM 44.6 °F 39.2 °F 33.8 °F 66% 30.16 in 10.0 mi NNE 10.4 mph - N/A   Scattered Clouds
8:50 PM 44.6 °F 38.8 °F 35.6 °F 71% 30.16 in 10.0 mi NNE 11.5 mph - N/A   Mostly Cloudy
8:55 PM 42.8 °F 38.0 °F 33.8 °F 70% 30.16 in 10.0 mi NNE 8.1 mph - N/A   Clear
9:15 PM 42.8 °F 37.5 °F 33.8 °F 70% 30.16 in 10.0 mi NNE 9.2 mph - N/A   Clear
9:35 PM 42.8 °F 37.5 °F 35.6 °F 76% 30.17 in 10.0 mi NNE 9.2 mph - N/A   Clear
9:55 PM 41.0 °F 36.4 °F 33.8 °F 76% 30.17 in 10.0 mi NNE 6.9 mph - N/A   Clear
10:15 PM 41.0 °F 34.7 °F 33.8 °F 76% 30.18 in 10.0 mi NNE 10.4 mph - N/A   Clear
10:35 PM 42.8 °F 37.0 °F 33.8 °F 70% 30.18 in 10.0 mi North 10.4 mph - N/A   Clear
10:55 PM 41.0 °F 34.3 °F 33.8 °F 76% 30.19 in 10.0 mi North 11.5 mph - N/A   Clear
11:15 PM 41.0 °F 35.2 °F 33.8 °F 76% 30.21 in 10.0 mi North 9.2 mph - N/A   Clear
11:35 PM 41.0 °F 33.1 °F 33.8 °F 76% 30.21 in 10.0 mi North 15.0 mph - N/A   Clear
11:55 PM 41.0 °F 32.5 °F 33.8 °F 76% 30.21 in 10.0 mi NE 17.3 mph - N/A   Clear